Regional Weather Roundup
Issued by NWS

Home | Current Version | Previous Version | Text Only | Print | Product List | Glossary On
Versions: 1 2 3 4 5 6 7 8 9 10 11 12 13 14 15 16 17 18 19 20 21 22 23 24 25 26 27 28 29 30 31 32 33 34 35 36 37 38 39 40 41 42 43 44 45 46 47 48 49 50
000
ASUS43 KTOP 250808
RWRKS

WEATHER ROUNDUP FOR KANSAS
NATIONAL WEATHER SERVICE GOODLAND KS
300 AM CDT FRI MAY 25 2018

NOTE:  "FAIR" INDICATES FEW OR NO CLOUDS BELOW 12,000 FEET WITH NO
SIGNIFICANT WEATHER AND/OR OBSTRUCTIONS TO VISIBILITY.

KSZ001>006-013>018-027>032-041>047-250900-
NORTHWEST KANSAS

CITY           SKY/WX    TMP DP  RH WIND       PRES   REMARKS
GOODLAND       CLEAR     55  49  80 S9        30.02R
HAYS           CLOUDY    60  58  92 SE6       29.97S
HILL CITY      CLEAR     59  55  87 CALM      29.96S
RUSSELL        CLOUDY    63  61  93 SE10      29.93F
$$

KSZ061>065-074>080-084>089-250900-
SOUTHWEST KANSAS

CITY           SKY/WX    TMP DP  RH WIND       PRES   REMARKS
DODGE CITY     PTCLDY    63  56  78 NW3       30.00R
ELKHART        CLEAR     67  64  88 S16       29.97S
GARDEN CITY    PTCLDY    66  54  65 SE9       29.98F
GREAT BEND     CLOUDY    62  59  90 E9        29.97R
LIBERAL        CLOUDY    70  63  78 S13       29.96F
PRATT          CLOUDY    69  64  84 NE8       29.93F
$$

KSZ066>073-081>083-090>101-250900-
SOUTHEAST KANSAS

CITY           SKY/WX    TMP DP  RH WIND       PRES   REMARKS
CHANUTE        CLOUDY    68  67  96 S7        29.96F
COFFEYVILLE    CLOUDY    69  67  93 SE6       29.95F
HUTCHINSON     CLOUDY    62  60  93 N12       29.99S
MEDICINE LODGE   N/A     73  53  49 NW10G23   29.93F
NEWTON         TSTM      63  61  94 N18       30.01F
PARSONS        CLOUDY    70  68  93 SE3       29.97F
WICHITA INTL   CLOUDY    73  66  78 N9        29.98R
WICHITA JABRA  CLOUDY    70  66  87 NW20G31   30.00R
WICHITA MCCONL MOCLDY    72  64  77 N15       29.98R
WINFIELD       CLEAR     69  68  96 SE6       29.95F
$$

KSZ007>012-019>026-033>040-048>060-102>105-250900-
NORTHEAST KANSAS

CITY           SKY/WX    TMP DP  RH WIND       PRES   REMARKS
CONCORDIA      CLOUDY    71  56  58 SW13      29.89R
EMPORIA        CLOUDY    68  65  90 SW7G17    29.98R
LAWRENCE       PTCLDY    68  66  93 SE5       29.94F
MANHATTAN      CLOUDY    69  64  84 S8        29.91F
MARYSVILLE     CLOUDY    66  64  94 SE6       29.89F
OLATHE IND     CLOUDY    68  66  93 SE7       29.95F
OLATHE EXE     LGT RAIN  67  66  97 S7        29.96S
SALINA         RAIN      68  64  87 S7        29.97F FOG
TOPEKA BILLARD MOCLDY    68  67  96 W10G17    29.96R
TOPEKA FORBES  MOCLDY    68  66  93 SW7       29.95S
$$




USA.gov is the U.S. government's official web portal to all federal, state and local government web resources and services.